[[{"header":{"parameterUnit":"m.s-1","parameterCategory":1,"la1":30.2991,"la2":30.254,"lo1":-89.0895,"lo2":-89.0444,"dy":0.0017,"dx":0.0017,"nx":28,"ny":28,"refTime":"2024-08-18T21:00:00:Z","depth":0,"parameterNumber":2,"parameterNumberName":"U-component_of_WINDS"},"data":[0,0,0,0,0,0,0,0,0,0,0,0,0,0,0,0,0,0,0,0,0,0,0,0,0,0,0,0,0,0,0,0,0,0,0,0,0,0,0,0,0,0,0,0,0,0,0,0,0,0,0,0,0,0,0,0,0,0,1.0249,1.025,0,1.0251,1.0251,1.0251,1.0266,1.0266,1.0267,1.0267,1.0266,1.0266,1.0265,0,0,0,0,0,0,0,0,0,0,0,0,0,1.0258,1.0257,1.0249,1.025,1.025,1.0251,1.0251,1.0251,1.0266,1.0266,1.0267,1.0267,1.0266,1.0266,1.0265,0,0,0,0,0,0,0,0,0,0,0,0,0,1.0256,1.0257,1.0249,1.0257,1.0258,1.0251,1.0251,1.0251,1.0266,1.0266,1.0267,1.0267,1.0266,1.0266,1.0265,1.0251,0,0,1.0264,1.0263,0,0,0,0,0,0,0,0,1.0256,1.0256,1.0256,1.0257,1.0257,1.0259,1.0254,1.0251,1.0266,1.0263,1.0267,1.0268,1.0263,1.0263,1.0262,1.0251,1.0251,1.0264,1.0263,1.0263,1.0263,0,0,0,0,0,0,0,1.0256,1.0256,1.025,1.0256,1.0257,1.026,1.026,1.0253,1.026,1.0263,1.0264,1.0264,1.0264,1.0262,1.0262,1.0251,1.0264,1.0263,1.0263,1.0262,1.0228,1.0227,0,0,0,0,0,0,1.0256,1.0256,1.025,1.025,1.0258,1.0259,1.026,1.0258,1.026,1.0261,1.0264,1.0265,1.0263,1.0263,1.0262,1.0245,1.0263,1.0262,1.0262,1.0228,1.0228,1.0227,0,0,0,0,0,0,1.0256,1.0255,1.025,1.0253,1.0253,1.0259,1.0256,1.0258,1.0256,1.026,1.0261,1.0261,1.0263,1.0263,1.0254,1.0245,1.0262,1.0262,1.0229,1.0228,1.0227,1.021,0,0,0,0,0,0,1.0256,1.0255,1.0249,1.0253,1.0253,1.0242,1.0256,1.0257,1.0256,1.0257,1.0258,1.0259,1.0264,1.0254,1.0253,1.0244,1.0261,1.023,1.0229,1.0228,1.0211,1.0209,1.0206,0,0,0,0,0,1.0256,1.0244,1.0249,1.0248,1.0246,1.0241,1.0241,1.0247,1.0255,1.0249,1.0252,1.0259,1.0247,1.0253,1.0252,1.0243,1.023,1.0229,1.0228,1.0213,1.0209,1.0206,0,0,0,0,0,0,1.0238,1.0244,1.025,1.0239,1.024,1.0244,1.0237,1.0244,1.0241,1.0243,1.025,1.025,1.024,1.0241,1.0248,1.0229,1.024,1.0238,1.0229,1.0226,1.0223,1.0222,1.0261,0,0,0,0,0,1.0233,1.0229,1.0235,1.0224,1.0224,1.0231,1.0229,1.0234,1.0234,1.0234,1.0237,1.0236,1.0232,1.0229,1.0226,1.0213,1.0213,1.0206,1.0203,1.0201,1.0199,1.0192,1.0189,1.0223,1.0223,1.0223,0,0,1.0222,1.0225,1.0222,1.0221,1.0222,1.0217,1.0231,1.0225,1.0221,1.0233,1.0225,1.0227,1.0227,1.0215,1.0211,1.0216,1.019,1.02,1.0198,1.0197,1.019,1.0187,1.0184,1.0222,1.0222,1.0222,0,0,1.0198,1.0201,1.0192,1.0194,1.0196,1.02,1.0199,1.0202,1.0204,1.0196,1.0205,1.0201,1.0194,1.0194,1.0193,1.0172,1.0178,1.0171,1.0157,1.015,1.0147,1.0145,1.0136,1.0133,1.0169,1.0169,1.0169,0,1.0184,1.0177,1.0187,1.0181,1.018,1.0193,1.0184,1.0184,1.0185,1.0184,1.019,1.0182,1.0183,1.0172,1.0167,1.0167,1.0164,1.0169,1.0147,1.0144,1.0142,1.0134,1.0131,1.0168,1.0168,1.0168,1.0168,0,1.0159,1.0155,1.0148,1.0149,1.0148,1.014,1.0148,1.0146,1.0152,1.0155,1.0147,1.015,1.0147,1.0145,1.015,1.0135,1.0138,1.0146,1.0156,1.0138,1.013,1.0128,1.0167,1.0167,1.0167,1.0167,0,0,1.0122,1.013,1.0127,1.0128,1.0132,1.0128,1.0122,1.0121,1.0118,1.0119,1.0113,1.0108,1.0115,1.0114,1.012,1.0114,1.0096,1.0122,1.0122,1.0116,1.0079,1.0071,1.0068,1.0102,1.0101,1.0101,1.0078,0,1.0098,1.0088,1.0097,1.0084,1.008,1.0093,1.0088,1.0089,1.0094,1.009,1.0095,1.0091,1.0102,1.0101,1.0096,1.01,1.0089,1.0102,1.0095,1.0095,1.0092,1.0064,1.0056,1.0034,1.0075,1.0075,1.0075,0,1.0069,1.0069,1.0056,1.0062,1.0061,1.0056,1.0055,1.0053,1.0055,1.0059,1.0059,1.0067,1.006,1.0072,1.0064,1.0072,1.007,1.0072,1.0071,1.0069,1.0082,1.0059,1.0028,1.0024,1.007,1.0071,1.0071,0,1.0041,1.0039,1.0031,1.0031,1.0038,1.0034,1.0037,1.004,1.0039,1.0039,1.0038,1.0038,1.0036,1.0036,1.0043,1.0051,1.0033,1.0046,1.0034,1.0034,1.0028,1.0028,0.9994,1.003,1.003,1.003,1.003,0,1.0012,1.0004,1.0018,1.0013,1.0004,1.0015,1.0006,1.001,1.0013,1.0009,1.0021,1.0016,1.0027,1.0024,1.003,1.0021,1.0021,1.0023,1.0024,1.0021,1.002,1.0018,1.0019,1.0029,1.0029,1.003,1.003,0,0.9978,0.9988,0.998,0.9988,0.999,0.9983,0.999,0.9985,0.9991,0.9986,0.9985,0.9994,0.9991,0.9999,0.9997,1.0001,0.9988,0.9993,0.9987,0.9988,0.9976,0.9976,0.9937,0.9932,0.9974,0.9973,0.9973,0,0.9958,0.9952,0.996,0.9959,0.9961,0.9958,0.9958,0.9969,0.9968,0.9972,0.9967,0.9965,0.9964,0.9959,0.9964,0.9963,0.9967,0.9953,0.9966,0.9963,0.9964,0.9964,0.9963,0.995,0.9949,0.9949,0.9948,0,0.9921,0.9927,0.9926,0.9927,0.9926,0.9927,0.9929,0.9927,0.994,0.9938,0.9935,0.9935,0.9934,0.9931,0.9932,0.9934,0.9943,0.9945,0.9942,0.9937,0.9933,0.9933,0.9978,0.9945,0.9945,0.9945,0.9946,0.9946,0.9892,0.9887,0.9892,0.9891,0.9894,0.9896,0.9893,0.9899,0.9898,0.9898,0.9906,0.9902,0.9906,0.9907,0.9909,0.9906,0.9912,0.9908,0.9907,0.9905,0.9902,0.9936,0.9907,0.9907,0.9907,0.9907,0.9907,0,0.9854,0.9859,0.9858,0.986,0.986,0.9871,0.9874,0.9872,0.9869,0.9872,0.9872,0.9869,0.9868,0.9875,0.9875,0.9871,0.9875,0.987,0.9869,0.9869,0.9898,0.99,0.9867,0.9867,0.9867,0.9867,0.9867,0.9867,0.9833,0.9826,0.9832,0.9827,0.9832,0.9828,0.9829,0.9831,0.9834,0.9831,0.9831,0.9836,0.9841,0.9842,0.9841,0.9843,0.9841,0.9835,0.9838,0.9864,0.9867,0.9871,0.9873,0.9835,0.9835,0.981,0.9809,0.9809]},{"header":{"parameterUnit":"m.s-1","parameterCategory":1,"la1":30.2991,"la2":30.254,"lo1":-89.0895,"lo2":-89.0444,"dy":0.0017,"dx":0.0017,"nx":28,"ny":28,"refTime":"2024-08-18T21:00:00:Z","depth":0,"parameterNumber":3,"parameterNumberName":"V-component_of_WINDS"},"data":[0,0,0,0,0,0,0,0,0,0,0,0,0,0,0,0,0,0,0,0,0,0,0,0,0,0,0,0,0,0,0,0,0,0,0,0,0,0,0,0,0,0,0,0,0,0,0,0,0,0,0,0,0,0,0,0,0,0,-4.3382,-4.3382,0,-4.3402,-4.3402,-4.3403,-4.3315,-4.3312,-4.331,-4.3307,-4.3327,-4.3329,-4.3332,0,0,0,0,0,0,0,0,0,0,0,0,0,-4.3266,-4.3269,-4.3382,-4.3382,-4.3382,-4.3402,-4.3402,-4.3403,-4.3315,-4.3312,-4.3309,-4.3306,-4.3326,-4.3329,-4.3333,0,0,0,0,0,0,0,0,0,0,0,0,0,-4.3305,-4.327,-4.3382,-4.3341,-4.3338,-4.3402,-4.3402,-4.3403,-4.3316,-4.3312,-4.3308,-4.3305,-4.3324,-4.3329,-4.3333,-4.3437,0,0,-4.3346,-4.3348,0,0,0,0,0,0,0,0,-4.3303,-4.3309,-4.3347,-4.3344,-4.334,-4.3352,-4.3369,-4.3414,-4.3317,-4.3324,-4.3307,-4.3303,-4.3338,-4.3341,-4.3353,-4.3438,-4.3439,-4.3347,-4.3349,-4.3351,-4.3352,0,0,0,0,0,0,0,-4.33,-4.3308,-4.339,-4.3348,-4.3344,-4.3322,-4.3323,-4.3377,-4.3352,-4.3323,-4.3317,-4.3321,-4.3335,-4.3349,-4.3353,-4.3439,-4.3347,-4.335,-4.3353,-4.3355,-4.361,-4.3614,0,0,0,0,0,0,-4.3303,-4.3306,-4.3389,-4.339,-4.3312,-4.3327,-4.3328,-4.3352,-4.3352,-4.3348,-4.3324,-4.3316,-4.3344,-4.3348,-4.3353,-4.3475,-4.3351,-4.3355,-4.3358,-4.3606,-4.3611,-4.3616,0,0,0,0,0,0,-4.3301,-4.3311,-4.3388,-4.3347,-4.3355,-4.3333,-4.3361,-4.3355,-4.3368,-4.3352,-4.3347,-4.3343,-4.3341,-4.3347,-4.3417,-4.3475,-4.3357,-4.3361,-4.3601,-4.3608,-4.3614,-4.372,0,0,0,0,0,0,-4.3298,-4.3311,-4.335,-4.3348,-4.3357,-4.3452,-4.3364,-4.3358,-4.3376,-4.3367,-4.3368,-4.3365,-4.3338,-4.3411,-4.3421,-4.3479,-4.3365,-4.3596,-4.3604,-4.3612,-4.3711,-4.3729,-4.3744,0,0,0,0,0,-4.3294,-4.3379,-4.3353,-4.3363,-4.3406,-4.3456,-4.3461,-4.3429,-4.3381,-4.3421,-4.341,-4.3365,-4.3467,-4.3419,-4.343,-4.3489,-4.3592,-4.3602,-4.3611,-4.3704,-4.3725,-4.3744,0,0,0,0,0,0,-4.3388,-4.3378,-4.3349,-4.3436,-4.3448,-4.3441,-4.3489,-4.3453,-4.3478,-4.3468,-4.3427,-4.3428,-4.3505,-4.3504,-4.3451,-4.359,-4.3521,-4.3533,-4.3588,-4.3608,-4.3625,-4.3623,-4.3368,0,0,0,0,0,-4.3419,-4.3461,-4.3449,-4.3527,-4.3535,-4.3512,-4.3532,-4.3507,-4.3517,-4.3521,-4.3516,-4.3527,-4.3561,-4.3585,-4.3616,-4.3711,-4.371,-4.3757,-4.3774,-4.3787,-4.3798,-4.3848,-4.3869,-4.3647,-4.3647,-4.3646,0,0,-4.3483,-4.3483,-4.3511,-4.3546,-4.3552,-4.3596,-4.3516,-4.3565,-4.3597,-4.3528,-4.3594,-4.3591,-4.36,-4.3684,-4.372,-4.3685,-4.3859,-4.3799,-4.381,-4.3813,-4.386,-4.3881,-4.39,-4.3653,-4.3652,-4.3651,0,0,-4.3622,-4.3627,-4.3692,-4.37,-4.371,-4.3695,-4.3711,-4.371,-4.3705,-4.3771,-4.372,-4.3757,-4.3817,-4.3826,-4.3839,-4.3983,-4.3942,-4.3994,-4.4081,-4.413,-4.4148,-4.4163,-4.4214,-4.4233,-4.4005,-4.4005,-4.4006,0,-4.37,-4.3765,-4.373,-4.3783,-4.38,-4.374,-4.3806,-4.3815,-4.3835,-4.3848,-4.3809,-4.3884,-4.3886,-4.3971,-4.4006,-4.4018,-4.4035,-4.3994,-4.4148,-4.4163,-4.4177,-4.4225,-4.4245,-4.4012,-4.4011,-4.401,-4.401,0,-4.386,-4.3906,-4.3957,-4.3979,-4.4001,-4.4061,-4.4035,-4.4062,-4.4035,-4.4023,-4.4091,-4.4092,-4.4122,-4.414,-4.4114,-4.4221,-4.4199,-4.4155,-4.4085,-4.4205,-4.425,-4.4268,-4.4021,-4.4018,-4.4017,-4.4015,0,0,-4.4058,-4.4061,-4.408,-4.409,-4.4097,-4.4131,-4.4188,-4.4218,-4.4242,-4.4258,-4.4305,-4.4358,-4.4317,-4.4331,-4.4306,-4.4349,-4.4463,-4.4299,-4.4299,-4.433,-4.4581,-4.4615,-4.4637,-4.4437,-4.444,-4.4443,-4.458,0,-4.4194,-4.4292,-4.4263,-4.4361,-4.4402,-4.4347,-4.4396,-4.4406,-4.4397,-4.443,-4.442,-4.4458,-4.4401,-4.441,-4.4451,-4.4441,-4.4513,-4.4431,-4.4479,-4.4481,-4.4478,-4.466,-4.4695,-4.4825,-4.4598,-4.4601,-4.4603,0,-4.4366,-4.439,-4.4492,-4.4494,-4.451,-4.4555,-4.458,-4.4613,-4.4624,-4.4614,-4.4631,-4.4597,-4.4652,-4.4583,-4.4658,-4.4603,-4.4621,-4.4619,-4.4623,-4.4626,-4.4549,-4.4667,-4.4865,-4.4885,-4.463,-4.4628,-4.4626,0,-4.45,-4.4558,-4.4626,-4.4636,-4.4639,-4.4672,-4.4675,-4.4682,-4.4702,-4.4724,-4.4737,-4.4765,-4.4781,-4.4804,-4.4778,-4.473,-4.4857,-4.4786,-4.485,-4.4851,-4.4879,-4.4878,-4.5083,-4.4892,-4.4892,-4.4892,-4.4891,0,-4.4655,-4.472,-4.4687,-4.4729,-4.48,-4.4766,-4.4837,-4.4833,-4.484,-4.488,-4.4834,-4.4872,-4.4836,-4.4872,-4.4852,-4.4918,-4.4925,-4.4918,-4.4912,-4.4922,-4.4923,-4.4933,-4.4923,-4.4897,-4.4896,-4.4895,-4.4894,0,-4.4816,-4.4797,-4.4868,-4.4866,-4.4867,-4.4919,-4.4917,-4.4956,-4.4944,-4.4995,-4.5005,-4.4986,-4.5026,-4.5003,-4.5043,-4.5029,-4.5115,-4.5096,-4.5112,-4.5106,-4.5172,-4.5167,-4.5391,-4.5418,-4.5211,-4.5213,-4.5214,0,-4.4916,-4.4964,-4.4968,-4.4992,-4.4998,-4.5038,-4.5058,-4.5027,-4.505,-4.5066,-4.5103,-4.5139,-4.5166,-4.5231,-4.5221,-4.5251,-4.5233,-4.5309,-4.5237,-4.5246,-4.5233,-4.5231,-4.5235,-4.5324,-4.5326,-4.5328,-4.533,0,-4.5095,-4.5083,-4.5115,-4.5145,-4.5171,-4.5192,-4.5209,-4.5231,-4.52,-4.5229,-4.5269,-4.529,-4.5332,-4.5367,-4.5393,-4.5395,-4.5358,-4.5353,-4.5369,-4.538,-4.5386,-4.5383,-4.5151,-4.5348,-4.5346,-4.5344,-4.5344,-4.5343,-4.5228,-4.5269,-4.5278,-4.5315,-4.5325,-4.5343,-4.5379,-4.5373,-4.5406,-4.5437,-4.5417,-4.5464,-4.5473,-4.5505,-4.5512,-4.5548,-4.5517,-4.5541,-4.5547,-4.5554,-4.5563,-4.5382,-4.5553,-4.5552,-4.5552,-4.5551,-4.5551,0,-4.5405,-4.5408,-4.5443,-4.5469,-4.5499,-4.5461,-4.5479,-4.5506,-4.5548,-4.5561,-4.5588,-4.5635,-4.5669,-4.5662,-4.5694,-4.5724,-4.5708,-4.5733,-4.573,-4.5731,-4.5589,-4.5571,-4.5746,-4.5746,-4.5746,-4.5746,-4.5746,-4.5746,-4.55,-4.5567,-4.5557,-4.5628,-4.5631,-4.5678,-4.5691,-4.5707,-4.5716,-4.577,-4.5799,-4.5795,-4.5799,-4.5831,-4.5861,-4.5858,-4.5871,-4.5904,-4.5894,-4.5761,-4.5741,-4.5723,-4.5706,-4.5907,-4.5907,-4.6034,-4.6035,-4.6036]}]]